Tampa, FL

4:43 PM EST on January 24, 2017 (GMT -0500)
Vandenberg

Weather History for KVDF - October, 2012

Change the Weather History Date:

Friday, October 26, 2012

  Actual Average (KPCM) Record (KPCM)
Temperature  
Mean Temperature 78 °F -  
Max Temperature 87 °F 83 °F 93 °F (2010)
Min Temperature 68 °F 59 °F 43 °F (1968)
Cooling Degree Days 12    
Growing Degree Days 28 (Base 50)    
Moisture  
Dew Point 64 °F    
Average Humidity 68    
Maximum Humidity 88    
Minimum Humidity 38    
Precipitation  
Precipitation 0.00 in - - ()
Sea Level Pressure  
Sea Level Pressure 29.73 in    
Wind  
Wind Speed 9 mph (North)    
Max Wind Speed 21 mph    
Max Gust Speed 32 mph    
Visibility 10 miles    
Events      
Averages and records for this station are not official NWS values.
T = Trace of Precipitation, MM = Missing Value Source: NWS Daily Summary

Daily Weather History Graph

Daily Weather History Graph

Search for Another Location

Airport or City:

Trip Planner

Search our weather history database for the weather conditions in past years. The results will help you decide how hot, cold, wet, or windy it might be!

Date:

Astronomy

Oct. 26, 2012 Rise Set
Actual Time 7:36 AM EDT 6:49 PM EDT
Civil Twilight 7:12 AM EDT 7:13 PM EDT
Nautical Twilight 6:45 AM EDT 7:40 PM EDT
Astronomical Twilight 6:17 AM EDT 8:08 PM EDT
Moon 4:54 PM EDT (10/26) 4:44 AM EDT (10/26)
Length of Visible Light 12h 00m
Length of Day
11h 12m
Waxing Gibbous, 91% of the Moon is Illuminated
Oct 26
Waxing Gibbous
Oct 29
Full
Nov 6
Last Quarter
Nov 13
New
Nov 20
First Quarter

Hourly Weather History & Observations

Time (EDT) Temp. Heat Index Dew Point Humidity Pressure Visibility Wind Dir Wind Speed Gust Speed Precip Events Conditions
12:15 AM 68.0 °F - 64.4 °F 88% 29.83 in 10.0 mi NNE 6.9 mph - N/A   Clear
12:35 AM 69.8 °F - 64.4 °F 83% 29.83 in 10.0 mi NNE 5.8 mph - N/A   Clear
12:55 AM 69.8 °F - 64.4 °F 83% 29.82 in 10.0 mi NNE 8.1 mph - N/A   Clear
1:35 AM 69.8 °F - 64.4 °F 83% 29.80 in 10.0 mi NNE 6.9 mph - N/A   Clear
1:55 AM 69.8 °F - 66.2 °F 88% 29.79 in 10.0 mi NNE 6.9 mph - N/A   Clear
2:15 AM 69.8 °F - 64.4 °F 83% 29.78 in 10.0 mi NNE 6.9 mph - N/A   Clear
2:35 AM 69.8 °F - 64.4 °F 83% 29.78 in 10.0 mi NNE 6.9 mph - N/A   Clear
2:55 AM 69.8 °F - 64.4 °F 83% 29.78 in 10.0 mi NNE 5.8 mph - N/A   Clear
3:15 AM 69.8 °F - 64.4 °F 83% 29.77 in 10.0 mi NNE 6.9 mph - N/A   Clear
3:35 AM 69.8 °F - 64.4 °F 83% 29.76 in 10.0 mi NNE 6.9 mph - N/A   Clear
3:55 AM 69.8 °F - 64.4 °F 83% 29.75 in 10.0 mi NNE 6.9 mph - N/A   Clear
4:35 AM 69.8 °F - 66.2 °F 88% 29.74 in 10.0 mi North 5.8 mph - N/A   Clear
4:55 AM 69.8 °F - 64.4 °F 83% 29.74 in 10.0 mi North 4.6 mph - N/A   Clear
5:15 AM 69.8 °F - 64.4 °F 83% 29.75 in 10.0 mi North 4.6 mph - N/A   Clear
5:35 AM 69.8 °F - 64.4 °F 83% 29.75 in 10.0 mi NNW 3.5 mph - N/A   Clear
5:55 AM 68.0 °F - 64.4 °F 88% 29.75 in 7.0 mi NNW 3.5 mph - N/A   Clear
6:35 AM 68.0 °F - 64.4 °F 88% 29.75 in 7.0 mi North 6.9 mph - N/A   Clear
6:55 AM 68.0 °F - 64.4 °F 88% 29.76 in 7.0 mi North 8.1 mph - N/A   Clear
7:15 AM 68.0 °F - 64.4 °F 88% 29.76 in 10.0 mi North 8.1 mph - N/A   Clear
7:35 AM 68.0 °F - 64.4 °F 88% 29.75 in 10.0 mi North 9.2 mph - N/A   Clear
7:55 AM 68.0 °F - 64.4 °F 88% 29.76 in 7.0 mi North 6.9 mph - N/A   Clear
8:15 AM 68.0 °F - 64.4 °F 88% 29.76 in 7.0 mi North 10.4 mph - N/A   Clear
8:35 AM 68.0 °F - 64.4 °F 88% 29.76 in 10.0 mi North 9.2 mph - N/A   Clear
8:55 AM 69.8 °F - 64.4 °F 83% 29.77 in 10.0 mi North 10.4 mph - N/A   Clear
9:15 AM 71.6 °F - 66.2 °F 83% 29.78 in 10.0 mi North 11.5 mph - N/A   Clear
9:35 AM 73.4 °F - 68.0 °F 83% 29.78 in 10.0 mi North 12.7 mph 16.1 mph N/A   Clear
9:55 AM 77.0 °F - 68.0 °F 74% 29.78 in 10.0 mi North 11.5 mph 19.6 mph N/A   Clear
10:15 AM 78.8 °F - 68.0 °F 69% 29.77 in 10.0 mi North 12.7 mph 21.9 mph N/A   Clear
10:35 AM 80.6 °F 83.2 °F 68.0 °F 65% 29.77 in 10.0 mi North 11.5 mph 23.0 mph N/A   Clear
10:55 AM 80.6 °F 83.2 °F 68.0 °F 65% 29.77 in 10.0 mi North 12.7 mph 21.9 mph N/A   Scattered Clouds
11:15 AM 80.6 °F 83.2 °F 68.0 °F 65% 29.77 in 10.0 mi North 12.7 mph 20.7 mph N/A   Mostly Cloudy
11:35 AM 80.6 °F 83.2 °F 68.0 °F 65% 29.76 in 10.0 mi North 11.5 mph 23.0 mph N/A   Mostly Cloudy
11:55 AM 82.4 °F 84.6 °F 66.2 °F 58% 29.75 in 10.0 mi NNE 12.7 mph 27.6 mph N/A   Scattered Clouds
12:15 PM 82.4 °F 83.9 °F 64.4 °F 54% 29.75 in 10.0 mi NNE 16.1 mph 24.2 mph N/A   Clear
12:35 PM 86.0 °F 87.3 °F 64.4 °F 48% 29.75 in 10.0 mi North 15.0 mph 26.5 mph N/A   Clear
12:55 PM 86.0 °F 87.3 °F 64.4 °F 48% 29.73 in 10.0 mi NNE 8.1 mph 23.0 mph N/A   Scattered Clouds
1:15 PM 86.0 °F 87.3 °F 64.4 °F 48% 29.73 in 10.0 mi NNE 10.4 mph 26.5 mph N/A   Scattered Clouds
1:35 PM 86.0 °F 87.3 °F 64.4 °F 48% 29.71 in 10.0 mi NE 12.7 mph 32.2 mph N/A   Scattered Clouds
1:55 PM 86.0 °F 86.6 °F 62.6 °F 45% 29.70 in 10.0 mi North 12.7 mph 23.0 mph N/A   Scattered Clouds
2:15 PM 87.8 °F 87.6 °F 60.8 °F 40% 29.69 in 10.0 mi North 12.7 mph 23.0 mph N/A   Scattered Clouds
2:35 PM 87.8 °F 87.6 °F 60.8 °F 40% 29.69 in 10.0 mi North 16.1 mph 25.3 mph N/A   Scattered Clouds
2:55 PM 87.8 °F 87.1 °F 59.0 °F 38% 29.68 in 10.0 mi North 13.8 mph 25.3 mph N/A   Scattered Clouds
3:15 PM 87.8 °F 87.1 °F 59.0 °F 38% 29.68 in 10.0 mi NNE 13.8 mph 23.0 mph N/A   Scattered Clouds
3:35 PM 87.8 °F 87.1 °F 59.0 °F 38% 29.67 in 10.0 mi North 20.7 mph 31.1 mph N/A   Clear
3:55 PM 87.8 °F 87.6 °F 60.8 °F 40% 29.66 in 10.0 mi NNE 10.4 mph 21.9 mph N/A   Clear
4:15 PM 86.0 °F 86.1 °F 60.8 °F 43% 29.66 in 10.0 mi North 15.0 mph 26.5 mph N/A   Scattered Clouds
4:35 PM 86.0 °F 86.1 °F 60.8 °F 43% 29.66 in 10.0 mi North 17.3 mph 26.5 mph N/A   Scattered Clouds
4:55 PM 86.0 °F 86.6 °F 62.6 °F 45% 29.66 in 10.0 mi North 16.1 mph 28.8 mph N/A   Scattered Clouds
5:15 PM 86.0 °F 86.6 °F 62.6 °F 45% 29.65 in 10.0 mi North 18.4 mph 24.2 mph N/A   Scattered Clouds
5:35 PM 84.2 °F 85.0 °F 62.6 °F 48% 29.65 in 10.0 mi NNE 12.7 mph 20.7 mph N/A   Scattered Clouds
6:15 PM 80.6 °F 81.8 °F 62.6 °F 54% 29.67 in 10.0 mi NNE 15.0 mph 29.9 mph N/A   Scattered Clouds
6:35 PM 80.6 °F 81.8 °F 62.6 °F 54% 29.68 in 10.0 mi North 13.8 mph 24.2 mph N/A   Scattered Clouds
6:55 PM 78.8 °F - 62.6 °F 57% 29.67 in 10.0 mi North 10.4 mph 18.4 mph N/A   Clear
7:15 PM 77.0 °F - 62.6 °F 61% 29.68 in 10.0 mi North 6.9 mph 17.3 mph N/A   Clear
7:35 PM 77.0 °F - 64.4 °F 65% 29.69 in 10.0 mi North 9.2 mph 18.4 mph N/A   Clear
7:55 PM 77.0 °F - 62.6 °F 61% 29.70 in 10.0 mi North 8.1 mph 21.9 mph N/A   Clear
8:15 PM 77.0 °F - 62.6 °F 61% 29.69 in 10.0 mi North 8.1 mph 20.7 mph N/A   Clear
8:35 PM 75.2 °F - 64.4 °F 69% 29.70 in 10.0 mi North 8.1 mph 18.4 mph N/A   Clear
8:55 PM 75.2 °F - 62.6 °F 65% 29.70 in 10.0 mi North 12.7 mph 18.4 mph N/A   Clear
9:15 PM 73.4 °F - 64.4 °F 73% 29.70 in 10.0 mi North 9.2 mph - N/A   Scattered Clouds
9:35 PM 73.4 °F - 64.4 °F 73% 29.70 in 10.0 mi North 10.4 mph - N/A   Scattered Clouds
9:55 PM 73.4 °F - 64.4 °F 73% 29.71 in 10.0 mi North 9.2 mph 17.3 mph N/A   Mostly Cloudy
10:15 PM 73.4 °F - 62.6 °F 69% 29.71 in 10.0 mi North 11.5 mph 16.1 mph N/A   Scattered Clouds
10:35 PM 73.4 °F - 62.6 °F 69% 29.71 in 10.0 mi North 10.4 mph 19.6 mph N/A   Clear
10:55 PM 73.4 °F - 62.6 °F 69% 29.71 in 10.0 mi North 12.7 mph 17.3 mph N/A   Scattered Clouds
11:35 PM 73.4 °F - 62.6 °F 69% 29.69 in 10.0 mi North 12.7 mph 17.3 mph N/A   Clear
11:55 PM 71.6 °F - 62.6 °F 73% 29.69 in 10.0 mi North 10.4 mph 19.6 mph N/A   Clear